Regional Weather Roundup
Issued by NWS

Home | Current Version | Previous Version | Text Only | Print | Product List | Glossary Off
Versions: 1 2 3 4 5 6 7 8 9 10 11 12 13 14 15 16 17 18 19 20 21 22 23 24 25 26 27 28 29 30 31 32 33 34 35 36 37 38 39 40 41 42 43 44 45 46 47 48 49 50

000
ASUS43 KMPX 290110
RWRMN
WEATHER ROUNDUP FOR MINNESOTA
NATIONAL WEATHER SERVICE TWIN CITIES/CHANHASSEN MN
700 PM CST FRI NOV 28 2014


NOTE: "FAIR" INDICATES FEW OR NO CLOUDS BELOW 12,000 FEET WITH NO
SIGNIFICANT WEATHER AND/OR OBSTRUCTIONS TO VISIBILITY. N/A MEANS
CURRENT SKY AND/OR WEATHER CONDITIONS ARE NOT AVAILABLE.

MNZ060>063-068>070-290200-
   Twin Cities Metro

CITY           SKY/WX    TMP DP  RH WIND       PRES   REMARKS
TWIN CITIES    MOCLDY    22  17  81 SE7       29.83R WCI  13
ST PAUL        MOCLDY    23  17  78 SE6       29.86R WCI  16
CRYSTAL        MOCLDY    24  16  71 SE6       29.82R WCI  17
LAKEVILLE      MOCLDY    21  18  86 E6        29.81R WCI  14
EDEN PRAIRIE   MOCLDY    23  18  81 E6        29.82R WCI  16
SOUTH ST PAUL  PTCLDY    25  17  74 CALM      29.84R
LAKE ELMO      CLOUDY    25  19  80 SE6       29.84S WCI  18
$$
MNZ001>005-007-008-013>017-022>024-027-028-290200-
   Northwest Minnesota

CITY           SKY/WX    TMP DP  RH WIND       PRES   REMARKS
BEMIDJI        CLOUDY    15   9  78 SE16      29.73F WCI  -1
HALLOCK        CLOUDY    18  10  73 SE15      29.71F WCI   3
ROSEAU         FLURRIES  18  12  79 SE9       29.74F WCI   6
WARROAD        LGT SNOW  16  10  79 SE9       29.75F WCI   4
THIEF RVR FALL CLOUDY    16  10  79 SE14      29.72F WCI   1
CROOKSTON      CLOUDY    18  12  79 SE9       29.73F WCI   6
FOSSTON        CLOUDY    14   9  79 SE8       29.72F WCI   3
DETROIT LAKES  CLEAR     18  12  79 SE13      29.73F WCI   4
MOORHEAD       PTCLDY    18  14  86 SE13      29.73F WCI   4
PARK RAPIDS    CLOUDY    15  10  80 SE10      29.74S WCI   2
MAHNOMEN       FAIR      16  10  77 SE7       29.72S WCI   7
$$
MNZ006-009>011-018-025>026-290200-
   North Central Minnesota

CITY           SKY/WX    TMP DP  RH WIND       PRES   REMARKS
BAUDETTE       CLOUDY    16   9  74 SE10G16   29.73F WCI   4
FLAG ISLAND    FLURRIES  14   9  79 E9        29.76F WCI   2
INTL FALLS     CLOUDY    16   9  74 SE9       29.78F WCI   4
WASKISH        FLURRIES  16  10  79 E10       29.75F WCI   3
BIG FORK       FLURRIES  18  10  73 SE6       29.77F WCI   9
LONGVILLE      CLOUDY    16  10  79 SE5       29.77F WCI   9
GRAND RAPIDS   CLOUDY    16   9  73 SE7       29.78F WCI   6
CRANE LAKE     CLOUDY    16  12  86 CALM      29.82F
ORR            CLOUDY    16  10  79 CALM      29.76F
COOK             N/A     18  14  86 SE6       29.79F WCI   9
WALKER         CLOUDY    15  10  81 SE5       29.75F WCI   7
$$
MNZ012-019>021-037-290200-
   Northeast Minnesota

CITY           SKY/WX    TMP DP  RH WIND       PRES   REMARKS
DULUTH         CLOUDY    17  12  80 SE8       29.82S WCI   7
ELY            CLOUDY    18  14  86 E3        29.81F
HIBBING        CLOUDY    17  11  77 SE8       29.80F WCI   7
EVELETH        CLOUDY    18  14  86 SE9       29.82F WCI   6
DULUTH HARBOR  CLOUDY    19  14  79 CALM      29.90F
TWO HARBORS    CLOUDY    21  16  79 SE5       29.84S WCI  15
SILVER BAY     PTCLDY    19  18  93 SE6       29.84F WCI  11
GRAND MARAIS     N/A     26  15  63 E10       29.92F WCI  16
G MARAIS ARPRT CLOUDY    16  10  79 E7        29.84S WCI   6
$$
MNZ029>031-032-039>041-046>048-054>057-064-290200-
   West Central Minnesota

CITY           SKY/WX    TMP DP  RH WIND       PRES   REMARKS
FERGUS FALLS   PTCLDY    16  10  79 SE8       29.78S WCI   5
WHEATON        PTCLDY    16  12  86 SE10      29.75F WCI   3
MORRIS         PTCLDY    18  12  79 SE10      29.74F WCI   6
ALEXANDRIA     MOCLDY    16  12  84 SE9       29.75S WCI   4
ELBOW LAKE     CLOUDY    17  13  84 SE10      29.73F WCI   5
WADENA         PTCLDY    14   9  79 SE9       29.74F WCI   2
GLENWOOD       MOCLDY    18  12  79 E10       29.76R WCI   6
APPLETON       PTCLDY    19  16  86 E10       29.75F WCI   8
BENSON         MOCLDY    19  14  79 SE7       29.76R WCI  10
ORTONVILLE     PTCLDY    16  12  86 SE8       29.73F WCI   5
MADISON        PTCLDY    21  18  86 SE8       29.74F WCI  12
WILLMAR        FAIR      21  16  79 E13       29.77F WCI   9
$$
MNZ033>034-036-042>043-049>051-058-059-290200-
   Central Minnesota

CITY           SKY/WX    TMP DP  RH WIND       PRES   REMARKS
ST CLOUD       CLOUDY    20  14  77 E7        29.80F WCI  11
SAUK CENTRE    CLOUDY    17  13  86 E8        29.77S WCI   6
PAYNESVILLE    CLOUDY    16  13  87 NE7       29.78F WCI   6
AITKIN         CLOUDY    19  10  68 E7        29.79F WCI  10
PINE RIVER     CLOUDY    16  10  79 SE9       29.81F WCI   4
BRAINERD       CLOUDY    15  11  83 SE8       29.78F WCI   4
STAPLES        CLOUDY    16  10  79 SE7       29.76S WCI   6
LONG PRAIRIE   CLOUDY    16  12  86 E6        29.78S WCI   7
LITTLE FALLS   CLOUDY    18  12  79 E6        29.79F WCI   9
LITCHFIELD     MOCLDY    19  18  93 E8        29.79F WCI   9
BUFFALO        MOCLDY    21  16  81 E5        29.83S WCI  15
MAPLE LAKE     MOCLDY    22  18  84 E5        29.82F WCI  16
$$
MNZ037-044-045-052-053-290200-
   East Central Minnesota

CITY           SKY/WX    TMP DP  RH WIND       PRES   REMARKS
PRINCETON      CLOUDY    19  16  86 E5        29.82S WCI  13
MORA             N/A    N/A N/A N/A MISG        N/A
CAMBRIDGE      CLOUDY    21  12  68 E5        29.81F WCI  15
RUSH CITY      MOCLDY    18  13  80 E3        29.84F
MOOSE LAKE     CLOUDY    18  12  79 CALM      29.82F
HINCKLEY       CLOUDY    19  14  79 CALM      29.84S
CLOQUET        FLURRIES  16  10  79 E7        29.82F WCI   6
MCGREGOR       CLOUDY    18  12  79 E7        29.82S WCI   8
$$
MNZ071>073-080-081-089-090-097-098-290200-
   Southwest Minnesota

CITY           SKY/WX    TMP DP  RH WIND       PRES   REMARKS
MONTEVIDEO     MOCLDY    18  18 100 S12       29.75F WCI   5
GRANITE FALLS  CLOUDY    21  18  88 E9        29.75F WCI  10
CANBY          CLOUDY    20  19  93 E7        29.74F WCI  11
MARSHALL       PTCLDY    19  16  86 E10       29.73F WCI   8
REDWOOD FALLS  CLOUDY    22  18  85 E7        29.77S WCI  13
OLIVIA         CLOUDY    21  18  86 SE9       29.76F WCI  11
PIPESTONE      CLEAR     27  25  93 SE5       29.67F WCI  21
WINDOM         PTCLDY    21  19  93 E6        29.72F WCI  14
WORTHINGTON    PTCLDY    21  19  93 E6        29.70F WCI  14
JACKSON        PTCLDY    21  18  86 SE6       29.72F WCI  14
TRACY          PTCLDY    19  17  93 E5        29.73F WCI  12
SLAYTON        PTCLDY    23  22  96 E6        29.71S WCI  16
$$
MNZ065>067-074>077-082>085-091>093-290200-
   South Central Minnesota

CITY           SKY/WX    TMP DP  RH WIND       PRES   REMARKS
MANKATO        MOCLDY    23  18  80 SE8       29.79S WCI  14
NEW ULM        FAIR      21  19  93 E8        29.78S WCI  12
ST JAMES       FAIR      21  18  86 E8        29.77F WCI  12
FAIRMONT       PTCLDY    21  16  79 SE8       29.74F WCI  12
GLENCOE        MOCLDY    23  20  91 E7        29.80S WCI  14
FARIBAULT      CLOUDY    25  19  80 SE9       29.80S WCI  15
OWATONNA       CLOUDY    25  19  80 E7        29.80R WCI  17
WASECA         CLOUDY    23  18  80 E5        29.81R WCI  17
ALBERT LEA     CLOUDY    25  21  86 SE8       29.78R WCI  16
$$
MNZ078>079-086>088-094>096-290200-
   Southeast Minnesota

CITY           SKY/WX    TMP DP  RH WIND       PRES   REMARKS
ROCHESTER      MOCLDY    23  19  85 SE12      29.81R WCI  12
RED WING       MOCLDY    25  18  74 SE13      29.82F WCI  13
STANTON        MOCLDY    26  19  77 E5        29.80S WCI  20
DODGE CENTER   CLOUDY    25  21  86 SE13      29.78F WCI  13
WINONA         CLOUDY    27  23  86 SE5       29.86F WCI  21
AUSTIN         CLOUDY    25  21  86 SE8       29.79R WCI  16
PRESTON        MOCLDY    23  19  85 SE8       29.82R WCI  14
$$
ABBREVIATIONS USED IN REMARKS
   TC - TEMPERATURES IN CELSIUS
  WCI - WIND CHILL INDEX
   HX - HEAT INDEX
  VSB - VISIBILITY
$$



USA.gov is the U.S. government's official web portal to all federal, state and local government web resources and services.